owner,sensor,date,latitude,longitude,vertical_datum,sea_water_practical_salinity,qcFlag 
DISL,ioos:station:DISL:MBLA:1,2011-01-01T07:17:00Z,30.4367,-88.0117,2.158,21.29,1111122 
DISL,ioos:station:DISL:MBLA:1,2011-01-01T08:17:00Z,30.4367,-88.0117,2.041,22.62,1111122 
DISL,ioos:station:DISL:MBLA:1,2011-01-01T09:17:00Z,30.4367,-88.0117,2.022,21.82,1111122 
DISL,ioos:station:DISL:MBLA:1,2011-01-01T10:17:00Z,30.4367,-88.0117,1.97,21.67,1111122 
DISL,ioos:station:DISL:MBLA:1,2011-01-01T11:17:00Z,30.4367,-88.0117,1.911,20.75,1111122 
DISL,ioos:station:DISL:MBLA:1,2011-01-01T12:17:00Z,30.4367,-88.0117,1.85,20.6,1111122 
DISL,ioos:station:DISL:MBLA:1,2011-01-01T13:17:00Z,30.4367,-88.0117,1.8,20.56,1111122 
DISL,ioos:station:DISL:MBLA:1,2011-01-01T14:17:00Z,30.4367,-88.0117,1.787,20.67,1111122 
DISL,ioos:station:DISL:MBLA:1,2011-01-01T15:17:00Z,30.4367,-88.0117,1.813,20.45,1111122 
DISL,ioos:station:DISL:MBLA:1,2011-01-01T16:17:00Z,30.4367,-88.0117,1.841,20.88,1111122 
DISL,ioos:station:DISL:MBLA:1,2011-01-01T17:17:00Z,30.4367,-88.0117,1.889,20.18,1111122 
DISL,ioos:station:DISL:MBLA:1,2011-01-01T18:17:00Z,30.4367,-88.0117,1.94,20.4,1111122 
DISL,ioos:station:DISL:MBLA:1,2011-01-01T19:17:00Z,30.4367,-88.0117,2.001,20.31,1111122 
DISL,ioos:station:DISL:MBLA:1,2011-01-01T20:17:00Z,30.4367,-88.0117,2.025,20.38,1111122 
DISL,ioos:station:DISL:MBLA:1,2011-01-01T21:17:00Z,30.4367,-88.0117,2.102,20.15,1111122 
DISL,ioos:station:DISL:MBLA:1,2011-01-01T22:17:00Z,30.4367,-88.0117,2.162,19.85,1111122 
DISL,ioos:station:DISL:MBLA:1,2011-01-01T23:17:00Z,30.4367,-88.0117,2.194,20.9,1111122 
DISL,ioos:station:DISL:MBLA:1,2011-01-02T00:17:00Z,30.4367,-88.0117,2.176,23.61,1111122 
DISL,ioos:station:DISL:MBLA:1,2011-01-02T01:17:00Z,30.4367,-88.0117,2.158,21.85,1111122 
DISL,ioos:station:DISL:MBLA:1,2011-01-02T02:17:00Z,30.4367,-88.0117,2.145,24.64,1111122 
DISL,ioos:station:DISL:MBLA:1,2011-01-02T03:17:00Z,30.4367,-88.0117,2.082,23.39,1111122 
DISL,ioos:station:DISL:MBLA:1,2011-01-02T04:17:00Z,30.4367,-88.0117,2.086,23.07,1111122 
DISL,ioos:station:DISL:MBLA:1,2011-01-02T05:17:00Z,30.4367,-88.0117,2.071,22.76,1111122 
DISL,ioos:station:DISL:MBLA:1,2011-01-02T06:17:00Z,30.4367,-88.0117,1.995,23.48,1111122 
DISL,ioos:station:DISL:MBLA:1,2011-01-02T07:17:00Z,30.4367,-88.0117,2.011,21.62,1111122 
DISL,ioos:station:DISL:MBLA:1,2011-01-02T08:17:00Z,30.4367,-88.0117,1.866,20.95,1111122 
DISL,ioos:station:DISL:MBLA:1,2011-01-02T09:17:00Z,30.4367,-88.0117,1.788,20.93,1111122 
DISL,ioos:station:DISL:MBLA:1,2011-01-02T10:17:00Z,30.4367,-88.0117,1.77,20.28,1111122 
DISL,ioos:station:DISL:MBLA:1,2011-01-02T11:17:00Z,30.4367,-88.0117,1.665,19.47,1111122 
DISL,ioos:station:DISL:MBLA:1,2011-01-02T12:17:00Z,30.4367,-88.0117,1.617,20.46,1111122 
DISL,ioos:station:DISL:MBLA:1,2011-01-02T13:17:00Z,30.4367,-88.0117,1.412,19.93,1111122 
DISL,ioos:station:DISL:MBLA:1,2011-01-02T14:17:00Z,30.4367,-88.0117,1.731,20.29,1111122 
DISL,ioos:station:DISL:MBLA:1,2011-01-02T15:17:00Z,30.4367,-88.0117,1.509,21.0,1111122 
DISL,ioos:station:DISL:MBLA:1,2011-01-02T16:17:00Z,30.4367,-88.0117,1.505,20.87,1111122 
DISL,ioos:station:DISL:MBLA:1,2011-01-02T17:17:00Z,30.4367,-88.0117,1.54,21.44,1111122 
DISL,ioos:station:DISL:MBLA:1,2011-01-02T18:17:00Z,30.4367,-88.0117,1.567,21.8,1111122 
DISL,ioos:station:DISL:MBLA:1,2011-01-02T19:17:00Z,30.4367,-88.0117,1.629,21.41,1111122 
DISL,ioos:station:DISL:MBLA:1,2011-01-02T20:17:00Z,30.4367,-88.0117,1.636,21.54,1111122 
DISL,ioos:station:DISL:MBLA:1,2011-01-02T21:17:00Z,30.4367,-88.0117,1.811,21.2,1111122 
DISL,ioos:station:DISL:MBLA:1,2011-01-02T22:17:00Z,30.4367,-88.0117,1.836,21.56,1111122 
DISL,ioos:station:DISL:MBLA:1,2011-01-02T23:17:00Z,30.4367,-88.0117,1.971,22.11,1111122 
DISL,ioos:station:DISL:MBLA:1,2011-01-03T00:17:00Z,30.4367,-88.0117,1.986,22.64,1111122 
DISL,ioos:station:DISL:MBLA:1,2011-01-03T01:17:00Z,30.4367,-88.0117,2.031,23.07,1111122 
DISL,ioos:station:DISL:MBLA:1,2011-01-03T02:17:00Z,30.4367,-88.0117,2.099,23.01,1111122 
DISL,ioos:station:DISL:MBLA:1,2011-01-03T03:17:00Z,30.4367,-88.0117,2.116,23.6,1111122 
DISL,ioos:station:DISL:MBLA:1,2011-01-03T04:17:00Z,30.4367,-88.0117,2.191,23.63,1111122 
DISL,ioos:station:DISL:MBLA:1,2011-01-03T05:17:00Z,30.4367,-88.0117,2.101,23.37,1111122 
DISL,ioos:station:DISL:MBLA:1,2011-01-03T06:17:00Z,30.4367,-88.0117,2.059,22.24,1111122 
DISL,ioos:station:DISL:MBLA:1,2011-01-03T07:17:00Z,30.4367,-88.0117,1.999,21.14,1111122 
DISL,ioos:station:DISL:MBLA:1,2011-01-03T08:17:00Z,30.4367,-88.0117,1.932,20.71,1111122 
DISL,ioos:station:DISL:MBLA:1,2011-01-03T09:17:00Z,30.4367,-88.0117,1.843,22.05,1111122 
DISL,ioos:station:DISL:MBLA:1,2011-01-03T10:17:00Z,30.4367,-88.0117,1.791,19.9,1111122 
DISL,ioos:station:DISL:MBLA:1,2011-01-03T11:17:00Z,30.4367,-88.0117,1.71,19.64,1111122 
DISL,ioos:station:DISL:MBLA:1,2011-01-03T12:17:00Z,30.4367,-88.0117,1.596,19.34,1111122 
DISL,ioos:station:DISL:MBLA:1,2011-01-03T13:17:00Z,30.4367,-88.0117,1.59,19.24,1111122 
DISL,ioos:station:DISL:MBLA:1,2011-01-03T14:17:00Z,30.4367,-88.0117,1.575,18.88,1111122 
DISL,ioos:station:DISL:MBLA:1,2011-01-03T15:17:00Z,30.4367,-88.0117,1.581,18.2,1111122 
DISL,ioos:station:DISL:MBLA:1,2011-01-03T16:17:00Z,30.4367,-88.0117,1.572,18.06,1111122 
DISL,ioos:station:DISL:MBLA:1,2011-01-03T17:17:00Z,30.4367,-88.0117,1.594,18.72,1111122 
DISL,ioos:station:DISL:MBLA:1,2011-01-03T18:17:00Z,30.4367,-88.0117,1.645,18.5,1111122 
DISL,ioos:station:DISL:MBLA:1,2011-01-03T19:17:00Z,30.4367,-88.0117,1.693,19.58,1111122 
DISL,ioos:station:DISL:MBLA:1,2011-01-03T20:17:00Z,30.4367,-88.0117,1.754,19.98,1111122 
DISL,ioos:station:DISL:MBLA:1,2011-01-03T21:17:00Z,30.4367,-88.0117,1.827,20.33,1111122 
DISL,ioos:station:DISL:MBLA:1,2011-01-03T22:17:00Z,30.4367,-88.0117,1.91,20.68,1111122 
DISL,ioos:station:DISL:MBLA:1,2011-01-03T23:17:00Z,30.4367,-88.0117,1.985,21.51,1111122 
DISL,ioos:station:DISL:MBLA:1,2011-01-04T00:17:00Z,30.4367,-88.0117,2.066,21.57,1111122 
DISL,ioos:station:DISL:MBLA:1,2011-01-04T01:17:00Z,30.4367,-88.0117,2.148,21.85,1111122 
DISL,ioos:station:DISL:MBLA:1,2011-01-04T02:17:00Z,30.4367,-88.0117,2.219,21.87,1111122 
DISL,ioos:station:DISL:MBLA:1,2011-01-04T03:17:00Z,30.4367,-88.0117,2.277,23.15,1111122 
DISL,ioos:station:DISL:MBLA:1,2011-01-04T04:17:00Z,30.4367,-88.0117,2.309,22.4,1111122 
DISL,ioos:station:DISL:MBLA:1,2011-01-04T05:17:00Z,30.4367,-88.0117,2.298,22.17,1111122 
DISL,ioos:station:DISL:MBLA:1,2011-01-04T06:17:00Z,30.4367,-88.0117,2.26,21.76,1111122 
DISL,ioos:station:DISL:MBLA:1,2011-01-04T07:17:00Z,30.4367,-88.0117,2.197,21.72,1111122 
DISL,ioos:station:DISL:MBLA:1,2011-01-04T08:17:00Z,30.4367,-88.0117,2.122,20.71,1111122 
DISL,ioos:station:DISL:MBLA:1,2011-01-04T09:17:00Z,30.4367,-88.0117,2.04,19.61,1111122 
DISL,ioos:station:DISL:MBLA:1,2011-01-04T10:17:00Z,30.4367,-88.0117,1.948,19.7,1111122 
DISL,ioos:station:DISL:MBLA:1,2011-01-04T11:17:00Z,30.4367,-88.0117,1.876,19.28,1111122 
DISL,ioos:station:DISL:MBLA:1,2011-01-04T12:17:00Z,30.4367,-88.0117,1.806,17.48,1111122 
DISL,ioos:station:DISL:MBLA:1,2011-01-04T13:17:00Z,30.4367,-88.0117,1.76,16.91,1111122 
DISL,ioos:station:DISL:MBLA:1,2011-01-04T14:17:00Z,30.4367,-88.0117,1.719,16.34,1111122 
DISL,ioos:station:DISL:MBLA:1,2011-01-04T15:17:00Z,30.4367,-88.0117,1.69,15.66,1111122 
DISL,ioos:station:DISL:MBLA:1,2011-01-04T16:17:00Z,30.4367,-88.0117,1.68,15.82,1111122 
DISL,ioos:station:DISL:MBLA:1,2011-01-04T17:17:00Z,30.4367,-88.0117,1.668,15.92,1111122 
DISL,ioos:station:DISL:MBLA:1,2011-01-04T18:17:00Z,30.4367,-88.0117,1.698,17.63,1111122 
DISL,ioos:station:DISL:MBLA:1,2011-01-04T19:17:00Z,30.4367,-88.0117,1.733,17.08,1111122 
DISL,ioos:station:DISL:MBLA:1,2011-01-04T20:17:00Z,30.4367,-88.0117,1.786,17.09,1111122 
DISL,ioos:station:DISL:MBLA:1,2011-01-04T21:17:00Z,30.4367,-88.0117,1.844,16.9,1111122 
DISL,ioos:station:DISL:MBLA:1,2011-01-04T22:17:00Z,30.4367,-88.0117,1.903,17.11,1111122 
DISL,ioos:station:DISL:MBLA:1,2011-01-04T23:17:00Z,30.4367,-88.0117,1.966,17.22,1111122 
DISL,ioos:station:DISL:MBLA:1,2011-01-05T00:17:00Z,30.4367,-88.0117,2.025,17.34,1111122 
DISL,ioos:station:DISL:MBLA:1,2011-01-05T01:17:00Z,30.4367,-88.0117,2.105,17.05,1111122 
DISL,ioos:station:DISL:MBLA:1,2011-01-05T02:17:00Z,30.4367,-88.0117,2.17,17.62,1111122 
DISL,ioos:station:DISL:MBLA:1,2011-01-05T03:17:00Z,30.4367,-88.0117,2.223,18.07,1111122 
DISL,ioos:station:DISL:MBLA:1,2011-01-05T04:17:00Z,30.4367,-88.0117,2.259,18.59,1111122 
DISL,ioos:station:DISL:MBLA:1,2011-01-05T05:17:00Z,30.4367,-88.0117,2.26,19.13,1111122 
DISL,ioos:station:DISL:MBLA:1,2011-01-05T06:17:00Z,30.4367,-88.0117,2.222,19.1,1111122 
DISL,ioos:station:DISL:MBLA:1,2011-01-05T07:17:00Z,30.4367,-88.0117,2.163,18.33,1111122 
DISL,ioos:station:DISL:MBLA:1,2011-01-05T08:17:00Z,30.4367,-88.0117,2.091,18.91,1111122 
DISL,ioos:station:DISL:MBLA:1,2011-01-05T09:17:00Z,30.4367,-88.0117,2.012,19.2,1111122 
DISL,ioos:station:DISL:MBLA:1,2011-01-05T10:17:00Z,30.4367,-88.0117,1.93,17.52,1111122 
DISL,ioos:station:DISL:MBLA:1,2011-01-05T11:17:00Z,30.4367,-88.0117,1.845,17.43,1111122 
DISL,ioos:station:DISL:MBLA:1,2011-01-05T12:17:00Z,30.4367,-88.0117,1.782,16.55,1111122 
DISL,ioos:station:DISL:MBLA:1,2011-01-05T13:17:00Z,30.4367,-88.0117,1.732,16.57,1111122 
DISL,ioos:station:DISL:MBLA:1,2011-01-05T14:17:00Z,30.4367,-88.0117,1.724,15.93,1111122 
DISL,ioos:station:DISL:MBLA:1,2011-01-05T15:17:00Z,30.4367,-88.0117,1.675,19.97,1111122 
DISL,ioos:station:DISL:MBLA:1,2011-01-05T16:17:00Z,30.4367,-88.0117,1.709,17.84,1111122 
DISL,ioos:station:DISL:MBLA:1,2011-01-05T17:17:00Z,30.4367,-88.0117,1.7,17.64,1111122 
DISL,ioos:station:DISL:MBLA:1,2011-01-05T18:17:00Z,30.4367,-88.0117,1.671,17.46,1111122 
DISL,ioos:station:DISL:MBLA:1,2011-01-05T19:17:00Z,30.4367,-88.0117,1.697,16.6,1111122 
DISL,ioos:station:DISL:MBLA:1,2011-01-05T20:17:00Z,30.4367,-88.0117,1.759,14.46,1111122 
DISL,ioos:station:DISL:MBLA:1,2011-01-05T21:17:00Z,30.4367,-88.0117,1.799,14.51,1111122 
DISL,ioos:station:DISL:MBLA:1,2011-01-05T22:17:00Z,30.4367,-88.0117,1.875,16.71,1111122 
DISL,ioos:station:DISL:MBLA:1,2011-01-05T23:17:00Z,30.4367,-88.0117,1.943,17.26,1111122 
DISL,ioos:station:DISL:MBLA:1,2011-01-06T00:17:00Z,30.4367,-88.0117,1.979,17.54,1111122 
DISL,ioos:station:DISL:MBLA:1,2011-01-06T01:17:00Z,30.4367,-88.0117,2.053,18.25,1111122 
DISL,ioos:station:DISL:MBLA:1,2011-01-06T02:17:00Z,30.4367,-88.0117,2.123,20.31,1111122 
DISL,ioos:station:DISL:MBLA:1,2011-01-06T03:17:00Z,30.4367,-88.0117,2.206,21.01,1111122 
DISL,ioos:station:DISL:MBLA:1,2011-01-06T04:17:00Z,30.4367,-88.0117,2.234,21.91,1111122 
DISL,ioos:station:DISL:MBLA:1,2011-01-06T05:17:00Z,30.4367,-88.0117,2.252,20.63,1111122 
DISL,ioos:station:DISL:MBLA:1,2011-01-06T06:17:00Z,30.4367,-88.0117,2.21,20.31,1111122 
DISL,ioos:station:DISL:MBLA:1,2011-01-06T07:17:00Z,30.4367,-88.0117,2.171,18.37,1111122 
DISL,ioos:station:DISL:MBLA:1,2011-01-06T08:17:00Z,30.4367,-88.0117,2.083,19.55,1111122 
DISL,ioos:station:DISL:MBLA:1,2011-01-06T09:17:00Z,30.4367,-88.0117,2.03,16.98,1111122 
DISL,ioos:station:DISL:MBLA:1,2011-01-06T10:17:00Z,30.4367,-88.0117,1.951,12.86,1111122 
DISL,ioos:station:DISL:MBLA:1,2011-01-06T11:17:00Z,30.4367,-88.0117,1.877,15.63,1111122 
DISL,ioos:station:DISL:MBLA:1,2011-01-06T12:17:00Z,30.4367,-88.0117,1.811,17.92,1111122 
DISL,ioos:station:DISL:MBLA:1,2011-01-06T13:17:00Z,30.4367,-88.0117,1.753,15.27,1111122 
DISL,ioos:station:DISL:MBLA:1,2011-01-06T14:17:00Z,30.4367,-88.0117,1.73,14.49,1111122 
DISL,ioos:station:DISL:MBLA:1,2011-01-06T15:17:00Z,30.4367,-88.0117,1.719,14.39,1111122 
DISL,ioos:station:DISL:MBLA:1,2011-01-06T16:17:00Z,30.4367,-88.0117,1.705,13.73,1111122 
DISL,ioos:station:DISL:MBLA:1,2011-01-06T17:17:00Z,30.4367,-88.0117,1.725,12.51,1111122 
DISL,ioos:station:DISL:MBLA:1,2011-01-06T18:17:00Z,30.4367,-88.0117,1.721,12.88,1111122 
DISL,ioos:station:DISL:MBLA:1,2011-01-06T19:17:00Z,30.4367,-88.0117,1.736,12.48,1111122 
DISL,ioos:station:DISL:MBLA:1,2011-01-06T20:17:00Z,30.4367,-88.0117,1.78,12.45,1111122 
DISL,ioos:station:DISL:MBLA:1,2011-01-06T21:17:00Z,30.4367,-88.0117,1.819,12.13,1111122 
DISL,ioos:station:DISL:MBLA:1,2011-01-06T22:17:00Z,30.4367,-88.0117,1.844,11.83,1111122 
DISL,ioos:station:DISL:MBLA:1,2011-01-06T23:17:00Z,30.4367,-88.0117,1.883,12.63,1111122 
DISL,ioos:station:DISL:MBLA:1,2011-01-07T00:17:00Z,30.4367,-88.0117,1.92,15.03,1111122 
DISL,ioos:station:DISL:MBLA:1,2011-01-07T01:17:00Z,30.4367,-88.0117,1.925,12.86,1111122 
DISL,ioos:station:DISL:MBLA:1,2011-01-07T02:17:00Z,30.4367,-88.0117,1.962,13.79,1111122 
DISL,ioos:station:DISL:MBLA:1,2011-01-07T03:17:00Z,30.4367,-88.0117,1.993,14.46,1111122 
DISL,ioos:station:DISL:MBLA:1,2011-01-07T04:17:00Z,30.4367,-88.0117,2.024,17.93,1111122 
DISL,ioos:station:DISL:MBLA:1,2011-01-07T05:17:00Z,30.4367,-88.0117,2.058,12.75,1111122 
DISL,ioos:station:DISL:MBLA:1,2011-01-07T06:17:00Z,30.4367,-88.0117,2.046,15.44,1111122 
DISL,ioos:station:DISL:MBLA:1,2011-01-07T07:17:00Z,30.4367,-88.0117,2.023,14.87,1111122 
DISL,ioos:station:DISL:MBLA:1,2011-01-07T08:17:00Z,30.4367,-88.0117,1.983,12.55,1111122 
DISL,ioos:station:DISL:MBLA:1,2011-01-07T09:17:00Z,30.4367,-88.0117,1.93,16.41,1111122 
DISL,ioos:station:DISL:MBLA:1,2011-01-07T10:17:00Z,30.4367,-88.0117,1.878,15.4,1111122 
DISL,ioos:station:DISL:MBLA:1,2011-01-07T11:17:00Z,30.4367,-88.0117,1.83,14.45,1111122 
DISL,ioos:station:DISL:MBLA:1,2011-01-07T12:17:00Z,30.4367,-88.0117,1.771,15.43,1111122 
DISL,ioos:station:DISL:MBLA:1,2011-01-07T13:17:00Z,30.4367,-88.0117,1.715,17.52,1111122 
DISL,ioos:station:DISL:MBLA:1,2011-01-07T14:17:00Z,30.4367,-88.0117,1.692,13.22,1111122 
DISL,ioos:station:DISL:MBLA:1,2011-01-07T15:17:00Z,30.4367,-88.0117,1.686,16.97,1111122 
DISL,ioos:station:DISL:MBLA:1,2011-01-07T16:17:00Z,30.4367,-88.0117,1.708,14.99,1111122 
DISL,ioos:station:DISL:MBLA:1,2011-01-07T17:17:00Z,30.4367,-88.0117,1.694,14.04,1111122 
DISL,ioos:station:DISL:MBLA:1,2011-01-07T18:17:00Z,30.4367,-88.0117,1.705,16.9,1111122 
DISL,ioos:station:DISL:MBLA:1,2011-01-07T19:17:00Z,30.4367,-88.0117,1.726,13.16,1111122 
DISL,ioos:station:DISL:MBLA:1,2011-01-07T20:17:00Z,30.4367,-88.0117,1.738,13.12,1111122 
DISL,ioos:station:DISL:MBLA:1,2011-01-07T21:17:00Z,30.4367,-88.0117,1.746,13.44,1111122 
DISL,ioos:station:DISL:MBLA:1,2011-01-07T22:17:00Z,30.4367,-88.0117,1.833,13.87,1111122 
DISL,ioos:station:DISL:MBLA:1,2011-01-07T23:17:00Z,30.4367,-88.0117,1.874,14.01,1111122 
DISL,ioos:station:DISL:MBLA:1,2011-01-08T00:17:00Z,30.4367,-88.0117,1.888,13.93,1111122 
DISL,ioos:station:DISL:MBLA:1,2011-01-08T01:17:00Z,30.4367,-88.0117,1.907,14.09,1111122 
DISL,ioos:station:DISL:MBLA:1,2011-01-08T02:17:00Z,30.4367,-88.0117,1.924,14.14,1111122 
DISL,ioos:station:DISL:MBLA:1,2011-01-08T03:17:00Z,30.4367,-88.0117,1.954,14.37,1111122 
DISL,ioos:station:DISL:MBLA:1,2011-01-08T04:17:00Z,30.4367,-88.0117,1.98,14.64,1111122 
DISL,ioos:station:DISL:MBLA:1,2011-01-08T05:17:00Z,30.4367,-88.0117,2.003,16.27,1111122 
DISL,ioos:station:DISL:MBLA:1,2011-01-08T06:17:00Z,30.4367,-88.0117,2.011,16.81,1111122 
DISL,ioos:station:DISL:MBLA:1,2011-01-08T07:17:00Z,30.4367,-88.0117,2.021,16.68,1111122 
DISL,ioos:station:DISL:MBLA:1,2011-01-08T08:17:00Z,30.4367,-88.0117,2.003,16.52,1111122 
DISL,ioos:station:DISL:MBLA:1,2011-01-08T09:17:00Z,30.4367,-88.0117,1.955,16.74,1111122 
DISL,ioos:station:DISL:MBLA:1,2011-01-08T10:17:00Z,30.4367,-88.0117,1.894,15.48,1111122 
DISL,ioos:station:DISL:MBLA:1,2011-01-08T11:17:00Z,30.4367,-88.0117,1.841,14.85,1111122 
DISL,ioos:station:DISL:MBLA:1,2011-01-08T12:17:00Z,30.4367,-88.0117,1.779,13.71,1111122 
DISL,ioos:station:DISL:MBLA:1,2011-01-08T13:17:00Z,30.4367,-88.0117,1.734,14.16,1111122 
DISL,ioos:station:DISL:MBLA:1,2011-01-08T14:17:00Z,30.4367,-88.0117,1.716,13.6,1111122 
DISL,ioos:station:DISL:MBLA:1,2011-01-08T15:17:00Z,30.4367,-88.0117,1.698,12.39,1111122 
DISL,ioos:station:DISL:MBLA:1,2011-01-08T16:17:00Z,30.4367,-88.0117,1.693,12.64,1111122 
DISL,ioos:station:DISL:MBLA:1,2011-01-08T17:17:00Z,30.4367,-88.0117,1.698,11.55,1111122 
DISL,ioos:station:DISL:MBLA:1,2011-01-08T18:17:00Z,30.4367,-88.0117,1.725,12.52,1111122 
DISL,ioos:station:DISL:MBLA:1,2011-01-08T19:17:00Z,30.4367,-88.0117,1.76,14.12,1111122 
DISL,ioos:station:DISL:MBLA:1,2011-01-08T20:17:00Z,30.4367,-88.0117,1.812,14.77,1111122 
DISL,ioos:station:DISL:MBLA:1,2011-01-08T21:17:00Z,30.4367,-88.0117,1.849,16.05,1111122 
DISL,ioos:station:DISL:MBLA:1,2011-01-08T22:17:00Z,30.4367,-88.0117,1.891,14.94,1111122 
DISL,ioos:station:DISL:MBLA:1,2011-01-08T23:17:00Z,30.4367,-88.0117,1.904,14.26,1111122 
DISL,ioos:station:DISL:MBLA:1,2011-01-09T00:17:00Z,30.4367,-88.0117,1.936,14.23,1111122 
DISL,ioos:station:DISL:MBLA:1,2011-01-09T01:17:00Z,30.4367,-88.0117,1.949,13.81,1111122 
DISL,ioos:station:DISL:MBLA:1,2011-01-09T02:17:00Z,30.4367,-88.0117,1.951,13.88,1111122 
DISL,ioos:station:DISL:MBLA:1,2011-01-09T03:17:00Z,30.4367,-88.0117,1.918,14.03,1111122 
DISL,ioos:station:DISL:MBLA:1,2011-01-09T04:17:00Z,30.4367,-88.0117,1.928,13.42,1111122 
DISL,ioos:station:DISL:MBLA:1,2011-01-09T05:17:00Z,30.4367,-88.0117,1.914,11.98,1111122 
DISL,ioos:station:DISL:MBLA:1,2011-01-09T06:17:00Z,30.4367,-88.0117,1.899,11.85,1111122 
DISL,ioos:station:DISL:MBLA:1,2011-01-09T07:17:00Z,30.4367,-88.0117,1.913,11.05,1111122 
DISL,ioos:station:DISL:MBLA:1,2011-01-09T08:17:00Z,30.4367,-88.0117,1.922,12.69,1111122 
DISL,ioos:station:DISL:MBLA:1,2011-01-09T09:17:00Z,30.4367,-88.0117,1.951,14.33,1111122 
DISL,ioos:station:DISL:MBLA:1,2011-01-09T10:17:00Z,30.4367,-88.0117,1.812,14.59,1111122 
DISL,ioos:station:DISL:MBLA:1,2011-01-09T11:17:00Z,30.4367,-88.0117,1.879,16.41,1111122 
DISL,ioos:station:DISL:MBLA:1,2011-01-09T12:17:00Z,30.4367,-88.0117,1.858,13.27,1111122 
DISL,ioos:station:DISL:MBLA:1,2011-01-09T13:17:00Z,30.4367,-88.0117,1.957,13.07,1111122 
DISL,ioos:station:DISL:MBLA:1,2011-01-09T14:17:00Z,30.4367,-88.0117,1.885,12.91,1111122 
DISL,ioos:station:DISL:MBLA:1,2011-01-09T15:17:00Z,30.4367,-88.0117,1.973,12.77,1111122 
DISL,ioos:station:DISL:MBLA:1,2011-01-09T16:17:00Z,30.4367,-88.0117,1.967,12.4,1111122 
DISL,ioos:station:DISL:MBLA:1,2011-01-09T17:17:00Z,30.4367,-88.0117,1.987,12.94,1111122 
DISL,ioos:station:DISL:MBLA:1,2011-01-09T18:17:00Z,30.4367,-88.0117,2.015,13.25,1111122 
DISL,ioos:station:DISL:MBLA:1,2011-01-09T19:17:00Z,30.4367,-88.0117,2.052,12.93,1111122 
DISL,ioos:station:DISL:MBLA:1,2011-01-09T20:17:00Z,30.4367,-88.0117,2.07,10.8,1111122 
DISL,ioos:station:DISL:MBLA:1,2011-01-09T21:17:00Z,30.4367,-88.0117,2.058,10.38,1111122 
DISL,ioos:station:DISL:MBLA:1,2011-01-09T22:17:00Z,30.4367,-88.0117,2.162,9.26,1111122 
DISL,ioos:station:DISL:MBLA:1,2011-01-09T23:17:00Z,30.4367,-88.0117,1.997,9.36,1111122 
DISL,ioos:station:DISL:MBLA:1,2011-01-10T00:17:00Z,30.4367,-88.0117,2.035,9.62,1111122 
DISL,ioos:station:DISL:MBLA:1,2011-01-10T01:17:00Z,30.4367,-88.0117,2.173,8.15,1111122 
DISL,ioos:station:DISL:MBLA:1,2011-01-10T02:17:00Z,30.4367,-88.0117,2.184,8.54,1111122 
DISL,ioos:station:DISL:MBLA:1,2011-01-10T03:17:00Z,30.4367,-88.0117,2.328,10.1,1111122 
DISL,ioos:station:DISL:MBLA:1,2011-01-10T04:17:00Z,30.4367,-88.0117,2.178,11.75,1111122 
DISL,ioos:station:DISL:MBLA:1,2011-01-10T05:17:00Z,30.4367,-88.0117,2.383,14.43,1111122 
DISL,ioos:station:DISL:MBLA:1,2011-01-10T06:17:00Z,30.4367,-88.0117,2.404,16.36,1111122 
DISL,ioos:station:DISL:MBLA:1,2011-01-10T07:17:00Z,30.4367,-88.0117,2.349,16.63,1111122 
DISL,ioos:station:DISL:MBLA:1,2011-01-10T08:17:00Z,30.4367,-88.0117,2.391,15.97,1111122 
DISL,ioos:station:DISL:MBLA:1,2011-01-10T09:17:00Z,30.4367,-88.0117,2.264,13.43,1111122 
DISL,ioos:station:DISL:MBLA:1,2011-01-10T10:17:00Z,30.4367,-88.0117,2.235,11.25,1111122 
DISL,ioos:station:DISL:MBLA:1,2011-01-10T11:17:00Z,30.4367,-88.0117,2.203,11.61,1111122 
DISL,ioos:station:DISL:MBLA:1,2011-01-10T12:17:00Z,30.4367,-88.0117,2.17,14.5,1111122 
DISL,ioos:station:DISL:MBLA:1,2011-01-10T13:17:00Z,30.4367,-88.0117,2.133,13.03,1111122 
DISL,ioos:station:DISL:MBLA:1,2011-01-10T14:17:00Z,30.4367,-88.0117,2.125,11.91,1111122 
DISL,ioos:station:DISL:MBLA:1,2011-01-10T15:17:00Z,30.4367,-88.0117,2.132,11.31,1111122 
DISL,ioos:station:DISL:MBLA:1,2011-01-10T16:17:00Z,30.4367,-88.0117,2.142,9.1,1111122 
DISL,ioos:station:DISL:MBLA:1,2011-01-10T17:17:00Z,30.4367,-88.0117,2.175,9.88,1111122 
DISL,ioos:station:DISL:MBLA:1,2011-01-10T18:17:00Z,30.4367,-88.0117,2.185,14.49,1111122 
DISL,ioos:station:DISL:MBLA:1,2011-01-10T20:17:00Z,30.4367,-88.0117,2.249,12.37,1111122 
DISL,ioos:station:DISL:MBLA:1,2011-01-10T21:17:00Z,30.4367,-88.0117,2.249,13.45,1111122 
DISL,ioos:station:DISL:MBLA:1,2011-01-10T22:17:00Z,30.4367,-88.0117,2.266,11.81,1111122 
DISL,ioos:station:DISL:MBLA:1,2011-01-10T23:17:00Z,30.4367,-88.0117,2.249,14.49,1111122 
DISL,ioos:station:DISL:MBLA:1,2011-01-11T00:17:00Z,30.4367,-88.0117,2.241,14.0,1111122 
DISL,ioos:station:DISL:MBLA:1,2011-01-11T01:17:00Z,30.4367,-88.0117,2.211,13.37,1111122 
DISL,ioos:station:DISL:MBLA:1,2011-01-11T02:17:00Z,30.4367,-88.0117,2.183,14.43,1111122 
DISL,ioos:station:DISL:MBLA:1,2011-01-11T03:17:00Z,30.4367,-88.0117,2.186,11.66,1111122 
DISL,ioos:station:DISL:MBLA:1,2011-01-11T04:17:00Z,30.4367,-88.0117,2.172,14.38,1111122 
DISL,ioos:station:DISL:MBLA:1,2011-01-11T05:17:00Z,30.4367,-88.0117,2.156,13.33,1111122 
DISL,ioos:station:DISL:MBLA:1,2011-01-11T06:17:00Z,30.4367,-88.0117,2.171,11.78,1111122 
DISL,ioos:station:DISL:MBLA:1,2011-01-11T07:17:00Z,30.4367,-88.0117,2.191,11.98,1111122 
DISL,ioos:station:DISL:MBLA:1,2011-01-11T08:17:00Z,30.4367,-88.0117,2.2,11.79,1111122 
DISL,ioos:station:DISL:MBLA:1,2011-01-11T09:17:00Z,30.4367,-88.0117,2.211,10.83,1111122 
DISL,ioos:station:DISL:MBLA:1,2011-01-11T10:17:00Z,30.4367,-88.0117,2.19,13.07,1111122 
DISL,ioos:station:DISL:MBLA:1,2011-01-11T11:17:00Z,30.4367,-88.0117,2.177,12.9,1111122 
DISL,ioos:station:DISL:MBLA:1,2011-01-11T12:17:00Z,30.4367,-88.0117,2.171,11.58,1111122 
DISL,ioos:station:DISL:MBLA:1,2011-01-11T13:17:00Z,30.4367,-88.0117,2.137,11.09,1111122 
DISL,ioos:station:DISL:MBLA:1,2011-01-11T14:17:00Z,30.4367,-88.0117,2.044,13.42,1111122 
DISL,ioos:station:DISL:MBLA:1,2011-01-11T15:17:00Z,30.4367,-88.0117,2.18,10.74,1111122 
DISL,ioos:station:DISL:MBLA:1,2011-01-11T16:17:00Z,30.4367,-88.0117,2.053,12.68,1111122 
DISL,ioos:station:DISL:MBLA:1,2011-01-11T17:17:00Z,30.4367,-88.0117,2.197,11.96,1111122 
DISL,ioos:station:DISL:MBLA:1,2011-01-11T18:17:00Z,30.4367,-88.0117,2.061,17.52,1111122 
DISL,ioos:station:DISL:MBLA:1,2011-01-11T19:17:00Z,30.4367,-88.0117,2.04,12.87,1111122 
DISL,ioos:station:DISL:MBLA:1,2011-01-11T20:17:00Z,30.4367,-88.0117,2.103,12.17,1111122 
DISL,ioos:station:DISL:MBLA:1,2011-01-11T21:17:00Z,30.4367,-88.0117,2.174,12.12,1111122 
DISL,ioos:station:DISL:MBLA:1,2011-01-11T22:17:00Z,30.4367,-88.0117,2.256,10.83,1111122 
DISL,ioos:station:DISL:MBLA:1,2011-01-11T23:17:00Z,30.4367,-88.0117,2.156,10.37,1111122 
DISL,ioos:station:DISL:MBLA:1,2011-01-12T00:17:00Z,30.4367,-88.0117,2.166,11.23,1111122 
DISL,ioos:station:DISL:MBLA:1,2011-01-12T01:17:00Z,30.4367,-88.0117,2.03,11.8,1111122 
DISL,ioos:station:DISL:MBLA:1,2011-01-12T02:17:00Z,30.4367,-88.0117,2.142,10.25,1111122 
DISL,ioos:station:DISL:MBLA:1,2011-01-12T03:17:00Z,30.4367,-88.0117,2.03,10.69,1111122 
DISL,ioos:station:DISL:MBLA:1,2011-01-12T04:17:00Z,30.4367,-88.0117,2.03,11.43,1111122 
DISL,ioos:station:DISL:MBLA:1,2011-01-12T05:17:00Z,30.4367,-88.0117,2.072,12.43,1111122 
DISL,ioos:station:DISL:MBLA:1,2011-01-12T06:17:00Z,30.4367,-88.0117,1.882,14.37,1111122 
DISL,ioos:station:DISL:MBLA:1,2011-01-12T07:17:00Z,30.4367,-88.0117,1.945,15.06,1111122 
DISL,ioos:station:DISL:MBLA:1,2011-01-12T08:17:00Z,30.4367,-88.0117,1.848,14.62,1111122 
DISL,ioos:station:DISL:MBLA:1,2011-01-12T09:17:00Z,30.4367,-88.0117,1.942,13.29,1111122 
DISL,ioos:station:DISL:MBLA:1,2011-01-12T10:17:00Z,30.4367,-88.0117,1.85,13.01,1111122 
DISL,ioos:station:DISL:MBLA:1,2011-01-12T11:17:00Z,30.4367,-88.0117,1.713,13.21,1111122 
DISL,ioos:station:DISL:MBLA:1,2011-01-12T12:17:00Z,30.4367,-88.0117,1.828,12.92,1111122 